Flag for Guernsey Weather past 2 weeks in St. Peter Port, Guernsey

Now
48 °F

Passing clouds.


Feels Like: 42 °F
Forecast: 47 / 57 °F
Wind: 16 mph from Northeast

Location: Guernsey Airport

Current Time: Apr 19, 2015 at 5:12:58 PM

Latest Report: Apr 19, 2015 at 4:20 PM


Visibility: N/A

Pressure: 30.15 "Hg

Humidity: 87%

Dew point: 45 °F

Location of St. Peter PortLocation

Historic Weather in St. Peter Port — Graph

°F

St. Peter Port temperature yesterday

Maximum temperature yesterday: 54 °F (at 11:50 AM)
Minimum temperature yesterday: 46 °F (at 3:50 AM)
Average temperature yesterday: 50 °F

Past Weeks' High & Low Weather Summary

 TemperatureHumidityPressure
High72 °F (Apr 15, 11:50 AM)100% (Apr 11, 6:20 AM)30.63 "Hg (Apr 11, 6:20 AM)
Low37 °F (Apr 5, 5:20 AM)45% (Apr 9, 12:50 PM)29.86 "Hg (Apr 16, 4:50 AM)
Average53 °F79%30.25 "Hg
* Reported Apr 4 3:20 PM — Apr 19 3:50 PM, St. Peter Port, Weather by CustomWeather, © 2015

Note: Actual official high and low records may vary slightly from our data, if they occured in-between our weather recording intervals... More about our weather records

Advertising

St. Peter Port weather history for previous 24 hours

 ConditionsComfort  
Time TempWeatherWind HumidityBarometerVisibility
3:50 PM
Sun, Apr 19
48 °FPassing clouds.15 mph87%30.15 "HgN/A
3:20 PM48 °FScattered clouds.15 mph87%30.15 "HgN/A
2:50 PM48 °FPartly sunny.17 mph82%30.18 "HgN/A
2:20 PM48 °FPartly sunny.15 mph82%30.18 "HgN/A
1:50 PM48 °FScattered clouds.15 mph82%30.18 "HgN/A
1:20 PM48 °FScattered clouds.15 mph82%30.18 "HgN/A
12:50 PM50 °FPartly sunny.17 mph82%30.18 "HgN/A
12:20 PM48 °FPartly sunny.16 mph82%30.18 "HgN/A
11:50 AM48 °FPartly sunny.13 mph82%30.21 "HgN/A
11:20 AM48 °FPartly sunny.16 mph82%30.21 "HgN/A
10:50 AM48 °FPartly sunny.16 mph82%30.18 "HgN/A
10:20 AM46 °FPartly sunny.18 mph87%30.18 "HgN/A
9:50 AM48 °FPartly sunny.16 mph87%30.18 "HgN/A
9:20 AM48 °FPartly sunny.16 mph87%30.18 "HgN/A
8:50 AM46 °FPartly sunny.17 mph93%30.18 "HgN/A
8:20 AM46 °FPartly sunny.17 mph93%30.18 "HgN/A
7:50 AM46 °FPartly sunny.16 mph93%30.18 "HgN/A
7:20 AM46 °FPartly sunny.16 mph93%30.18 "HgN/A
6:50 AM46 °FPassing clouds.16 mph93%30.15 "HgN/A
6:20 AM46 °FPassing clouds.18 mph93%30.15 "HgN/A
5:50 AM46 °FPassing clouds.17 mph93%30.15 "HgN/A
5:20 AM46 °FPassing clouds.14 mph93%30.15 "HgN/A
4:20 AM46 °FClear.14 mph93%30.18 "Hg10 mi
3:50 AM46 °FClear.16 mph93%30.18 "Hg10 mi
8:50 PM
Sat, Apr 18
48 °FSunny.22 mph82%30.18 "Hg10 mi
8:20 PM50 °FSunny.22 mph82%30.15 "Hg10 mi
7:50 PM50 °FSunny.22 mph82%30.15 "Hg10 mi
7:20 PM50 °FSunny.22 mph76%30.15 "Hg10 mi
6:50 PM50 °FSunny.24 mph76%30.12 "Hg10 mi
6:20 PM52 °FSunny.24 mph72%30.15 "Hg10 mi
5:50 PM52 °FSunny.24 mph72%30.15 "Hg10 mi
5:20 PM52 °FSunny.24 mph77%30.12 "Hg10 mi
Weather by CustomWeather, © 2015

See weather overviewHow to use our weather pages